This is the latest recevied weather packets stored in our database for station/object W7PLC. If no packets are shown the sender has not sent any weather packets the latest 10 day(s).
| Time | Temp. | Humidity | Pressure | Rain* | Wind** | Luminosity | Snow |
|---|---|---|---|---|---|---|---|
| 1778012956 | 16.67° C | 78% | 1015 hPa | 0 mm | - | 90 W/m² | - |
| 1778012349 | 16.11° C | 79% | 1015.1 hPa | 0 mm | - | 96 W/m² | - |
| 1778012046 | 16.11° C | 80% | 1014.9 hPa | 0 mm | - | 95 W/m² | - |
| 1778011744 | 15.56° C | 80% | 1014.7 hPa | 0 mm | - | 90 W/m² | - |
| 1778009929 | 15.56° C | 82% | 1015.1 hPa | 0 mm | - | 81 W/m² | - |
| 1778009627 | 15.56° C | 82% | 1014.9 hPa | 0 mm | - | 84 W/m² | - |
| 1778009324 | 15° C | 82% | 1015.2 hPa | 0 mm | - | 81 W/m² | - |
| 1778009023 | 15° C | 83% | 1014.9 hPa | 0 mm | - | 79 W/m² | - |
| 1778008720 | 15° C | 83% | 1014.8 hPa | 0 mm | - | 78 W/m² | - |
| 1778008418 | 15° C | 83% | 1014.8 hPa | 0 mm | - | 77 W/m² | - |
| 1778008114 | 15° C | 83% | 1015 hPa | 0 mm | - | 76 W/m² | - |
| 1778007810 | 15° C | 83% | 1014.7 hPa | 0 mm | - | 66 W/m² | - |
| 1778007506 | 15° C | 83% | 1014.6 hPa | 0 mm | - | 65 W/m² | - |
| 1778007203 | 15° C | 83% | 1014.9 hPa | 0 mm | - | 64 W/m² | - |
| 1778006899 | 15° C | 84% | 1014.7 hPa | 0 mm | - | 67 W/m² | - |
| 1778006293 | 15° C | 83% | 1015 hPa | 0 mm | - | 61 W/m² | - |
| 1778005990 | 15° C | 84% | 1014.8 hPa | 0 mm | - | 62 W/m² | - |
| 1778005687 | 15° C | 84% | 1014.8 hPa | 0 mm | - | 57 W/m² | - |
| 1778005080 | 15° C | 84% | 1014.8 hPa | 0 mm | - | 57 W/m² | - |
| 1778004777 | 15° C | 85% | 1014.7 hPa | 0 mm | - | 55 W/m² | - |
| 1778004474 | 15° C | 85% | 1014.7 hPa | 0 mm | - | 55 W/m² | - |
| 1778004170 | 14.44° C | 85% | 1014.8 hPa | 0 mm | - | 56 W/m² | - |
| 1778003260 | 14.44° C | 85% | 1014.7 hPa | 0 mm | - | 48 W/m² | - |
| 1778002653 | 14.44° C | 86% | 1014.7 hPa | 0 mm | - | 47 W/m² | - |
| 1778002350 | 13.89° C | 86% | 1014.8 hPa | 0 mm | - | 45 W/m² | - |
* Rain latest hour (hover to see other rain measurements)
** Current wind speed in m/s (hover to see current wind gust speed)